{"data":{"norad_id":50836,"intl_designator":"2022-001AK","name":"STARLINK-3330","alt_names":[],"object_type":"PAYLOAD","status":"ACTIVE","operator":null,"country":"US","launch_date":"2022-01-06","launch_site_code":"AFETR","launch_vehicle":null,"mission":null,"orbit_class":"UNKNOWN","rcs_meters":null,"size_class":null,"mass_kg":null,"dimensions":null,"purposes":["comms"],"wikipedia_slug":null,"has_3d_model":false,"image_url":null,"decayed_at":null,"tle_current":{"epoch":"2026-05-25T03:00:33.151680Z","epoch_age_seconds":67400,"freshness":"FRESH","line1":"1 50836U 22001AK  26145.12538370 -.00000016  00000+0  17112-4 0  9997","line2":"2 50836  53.2148 195.7648 0001186  85.5515 274.5613 15.08834766241702","mean_motion":15.08834766,"eccentricity":0.0001186,"inclination_deg":53.2148,"raan_deg":195.7648,"arg_perigee_deg":85.5515,"mean_anomaly_deg":274.5613,"bstar":1.7112e-5,"rev_number":24170,"period_min":95.437885741294,"perigee_km":538.93892474293,"apogee_km":540.57984976599,"semimajor_km":6917.8963872545,"source":"CELESTRAK","updated_at":"2026-05-25T13:38:16.880766Z"}}}